[[{"header":{"parameterUnit":"m.s-1","parameterCategory":1,"la1":30.2991,"la2":30.254,"lo1":-89.0895,"lo2":-89.0444,"dy":0.0017,"dx":0.0017,"nx":28,"ny":28,"refTime":"2023-09-04T21:00:00:Z","depth":0,"parameterNumber":2,"parameterNumberName":"U-component_of_WINDS"},"data":[0,0,0,0,0,0,0,0,0,0,0,0,0,0,0,0,0,0,0,0,0,0,0,0,0,0,0,0,0,0,0,0,0,0,0,0,0,0,0,0,0,0,0,0,0,0,0,0,0,0,0,0,0,0,0,0,0,0,-1.2011,-1.2012,0,-1.2097,-1.2098,-1.2099,-1.2122,-1.2122,-1.2121,-1.2121,-1.2207,-1.221,-1.2213,0,0,0,0,0,0,0,0,0,0,0,0,0,-1.1868,-1.187,-1.2011,-1.2012,-1.2013,-1.2097,-1.2098,-1.2099,-1.2122,-1.2122,-1.2121,-1.2121,-1.2206,-1.221,-1.2213,0,0,0,0,0,0,0,0,0,0,0,0,0,-1.1939,-1.1871,-1.2011,-1.2035,-1.2038,-1.2096,-1.2098,-1.2099,-1.2122,-1.2122,-1.2121,-1.212,-1.2205,-1.2209,-1.2213,-1.2254,0,0,-1.2226,-1.2228,0,0,0,0,0,0,0,0,-1.1935,-1.1945,-1.203,-1.2033,-1.2037,-1.2098,-1.2079,-1.2151,-1.2123,-1.209,-1.2121,-1.212,-1.2171,-1.2178,-1.2196,-1.2258,-1.2261,-1.2226,-1.2229,-1.2231,-1.2232,0,0,0,0,0,0,0,-1.193,-1.1941,-1.2045,-1.2031,-1.2036,-1.2042,-1.2051,-1.2093,-1.2134,-1.2093,-1.2095,-1.2105,-1.2173,-1.2192,-1.2198,-1.2263,-1.2226,-1.223,-1.2233,-1.2234,-1.2363,-1.2364,0,0,0,0,0,0,-1.1921,-1.1937,-1.2042,-1.2047,-1.1983,-1.2045,-1.2055,-1.2079,-1.2134,-1.2141,-1.2105,-1.2106,-1.2185,-1.2193,-1.2201,-1.2252,-1.2231,-1.2235,-1.2237,-1.2362,-1.2363,-1.2364,0,0,0,0,0,0,-1.1918,-1.193,-1.2039,-1.1993,-1.2007,-1.2048,-1.2075,-1.2081,-1.21,-1.2143,-1.215,-1.2117,-1.2185,-1.2195,-1.2241,-1.2256,-1.2236,-1.224,-1.2361,-1.2362,-1.2364,-1.2354,0,0,0,0,0,0,-1.1914,-1.1929,-1.1945,-1.1993,-1.2009,-1.2077,-1.2076,-1.2083,-1.2107,-1.2108,-1.2156,-1.2163,-1.2185,-1.2234,-1.2245,-1.2261,-1.2243,-1.236,-1.2361,-1.2363,-1.2354,-1.2355,-1.2357,0,0,0,0,0,-1.1909,-1.1938,-1.1945,-1.1958,-1.203,-1.2077,-1.2087,-1.2112,-1.2108,-1.2124,-1.2152,-1.2161,-1.2253,-1.2239,-1.2251,-1.2268,-1.2359,-1.2361,-1.2363,-1.2353,-1.2355,-1.2357,0,0,0,0,0,0,-1.189,-1.1945,-1.1953,-1.1999,-1.2034,-1.2081,-1.2102,-1.2113,-1.2149,-1.2149,-1.2179,-1.2189,-1.2232,-1.2255,-1.2239,-1.2311,-1.2306,-1.2311,-1.2294,-1.2297,-1.2298,-1.2291,-1.2247,0,0,0,0,0,-1.1891,-1.1925,-1.1972,-1.2008,-1.2025,-1.206,-1.2082,-1.2099,-1.2136,-1.215,-1.2181,-1.2216,-1.2253,-1.2276,-1.2312,-1.2358,-1.2368,-1.2376,-1.2377,-1.2379,-1.2382,-1.2408,-1.2412,-1.2371,-1.2371,-1.2371,0,0,-1.1894,-1.1928,-1.1948,-1.2005,-1.2033,-1.2068,-1.2072,-1.2109,-1.2135,-1.2155,-1.22,-1.2224,-1.2266,-1.2311,-1.2333,-1.2331,-1.2396,-1.2381,-1.2382,-1.2385,-1.2411,-1.2415,-1.2418,-1.2372,-1.2372,-1.2372,0,0,-1.1916,-1.1946,-1.1979,-1.2008,-1.2052,-1.2076,-1.2084,-1.2131,-1.2148,-1.2193,-1.221,-1.2242,-1.2304,-1.2333,-1.2356,-1.2392,-1.2401,-1.2403,-1.2411,-1.2436,-1.2439,-1.2442,-1.2455,-1.2459,-1.2406,-1.2406,-1.2406,0,-1.1914,-1.1967,-1.1995,-1.2031,-1.2056,-1.2077,-1.2112,-1.2139,-1.2191,-1.2208,-1.2206,-1.2286,-1.2315,-1.2368,-1.2377,-1.2395,-1.2405,-1.2396,-1.2437,-1.244,-1.2443,-1.2456,-1.246,-1.2406,-1.2406,-1.2406,-1.2406,0,-1.1962,-1.1999,-1.2021,-1.2073,-1.21,-1.2135,-1.2169,-1.2193,-1.2209,-1.2233,-1.228,-1.2316,-1.236,-1.2374,-1.2389,-1.243,-1.2427,-1.2431,-1.2426,-1.2446,-1.2459,-1.2464,-1.2405,-1.2405,-1.2406,-1.2406,0,0,-1.1974,-1.2041,-1.2049,-1.2073,-1.2123,-1.2153,-1.2189,-1.2233,-1.2254,-1.229,-1.2322,-1.2375,-1.2379,-1.2405,-1.2423,-1.2446,-1.2472,-1.2447,-1.2448,-1.245,-1.252,-1.2517,-1.2522,-1.248,-1.2481,-1.2482,-1.2517,0,-1.2002,-1.2068,-1.2095,-1.2149,-1.2184,-1.2206,-1.2238,-1.2272,-1.2296,-1.233,-1.2356,-1.2394,-1.2396,-1.2412,-1.2435,-1.2464,-1.2487,-1.2462,-1.2509,-1.251,-1.2497,-1.2528,-1.2525,-1.2556,-1.2522,-1.2522,-1.2523,0,-1.2044,-1.2082,-1.2139,-1.2186,-1.2202,-1.223,-1.2273,-1.2305,-1.2345,-1.2361,-1.2391,-1.2409,-1.2448,-1.2442,-1.2498,-1.248,-1.2501,-1.2519,-1.2521,-1.2525,-1.2517,-1.2533,-1.2566,-1.2571,-1.2531,-1.253,-1.253,0,-1.2047,-1.2111,-1.2154,-1.2174,-1.2231,-1.225,-1.2275,-1.2314,-1.2339,-1.2377,-1.2394,-1.2436,-1.2458,-1.249,-1.2519,-1.2512,-1.2572,-1.2568,-1.2586,-1.2585,-1.2597,-1.2595,-1.2633,-1.2611,-1.2611,-1.2611,-1.2611,0,-1.2075,-1.2109,-1.2156,-1.2182,-1.2222,-1.2253,-1.2291,-1.2317,-1.2352,-1.2384,-1.2406,-1.2435,-1.2471,-1.2506,-1.2528,-1.2571,-1.2581,-1.2595,-1.2601,-1.2593,-1.2591,-1.2606,-1.2605,-1.2612,-1.2612,-1.2612,-1.2612,0,-1.2084,-1.2117,-1.2165,-1.2215,-1.2229,-1.2255,-1.2298,-1.2325,-1.2351,-1.2391,-1.2402,-1.2443,-1.2484,-1.2517,-1.257,-1.2586,-1.2631,-1.2637,-1.2617,-1.262,-1.2636,-1.2634,-1.2684,-1.2693,-1.2666,-1.2666,-1.2666,0,-1.21,-1.2127,-1.218,-1.2203,-1.2228,-1.2265,-1.2291,-1.2323,-1.2349,-1.2398,-1.2419,-1.2462,-1.2499,-1.2564,-1.2598,-1.264,-1.2647,-1.2662,-1.2654,-1.2645,-1.2647,-1.2645,-1.2648,-1.2663,-1.2663,-1.2663,-1.2663,0,-1.2125,-1.214,-1.2177,-1.222,-1.2251,-1.2286,-1.2322,-1.2339,-1.2378,-1.2407,-1.245,-1.2478,-1.2534,-1.2577,-1.2623,-1.2648,-1.2662,-1.2666,-1.2672,-1.2664,-1.2652,-1.2659,-1.262,-1.2664,-1.2664,-1.2664,-1.2664,-1.2664,-1.2138,-1.2163,-1.2205,-1.2245,-1.2276,-1.2309,-1.2337,-1.2367,-1.2403,-1.2452,-1.2469,-1.2513,-1.2554,-1.2617,-1.2643,-1.2678,-1.2679,-1.2688,-1.269,-1.2692,-1.2691,-1.2647,-1.2687,-1.2687,-1.2687,-1.2687,-1.2687,0,-1.2163,-1.2192,-1.2229,-1.2279,-1.2311,-1.2323,-1.2363,-1.2389,-1.2428,-1.2465,-1.2501,-1.2551,-1.2593,-1.2632,-1.2676,-1.2697,-1.2704,-1.2707,-1.2705,-1.2711,-1.2688,-1.2678,-1.27,-1.27,-1.27,-1.27,-1.27,-1.27,-1.2181,-1.2224,-1.2245,-1.2304,-1.2332,-1.2376,-1.2398,-1.2429,-1.2459,-1.2514,-1.255,-1.2575,-1.2613,-1.266,-1.2699,-1.2709,-1.2724,-1.2725,-1.2737,-1.2715,-1.2713,-1.2711,-1.2702,-1.2728,-1.2729,-1.2757,-1.2758,-1.2758]},{"header":{"parameterUnit":"m.s-1","parameterCategory":1,"la1":30.2991,"la2":30.254,"lo1":-89.0895,"lo2":-89.0444,"dy":0.0017,"dx":0.0017,"nx":28,"ny":28,"refTime":"2023-09-04T21:00:00:Z","depth":0,"parameterNumber":3,"parameterNumberName":"V-component_of_WINDS"},"data":[0,0,0,0,0,0,0,0,0,0,0,0,0,0,0,0,0,0,0,0,0,0,0,0,0,0,0,0,0,0,0,0,0,0,0,0,0,0,0,0,0,0,0,0,0,0,0,0,0,0,0,0,0,0,0,0,0,0,1.3821,1.3819,0,1.3612,1.361,1.3608,1.3474,1.3473,1.3473,1.3472,1.3251,1.3246,1.324,0,0,0,0,0,0,0,0,0,0,0,0,0,1.41,1.4095,1.3822,1.3819,1.3816,1.3613,1.361,1.3607,1.3474,1.3473,1.3472,1.3471,1.3252,1.3246,1.324,0,0,0,0,0,0,0,0,0,0,0,0,0,1.3944,1.4094,1.3822,1.3726,1.3715,1.3613,1.361,1.3606,1.3474,1.3473,1.3472,1.3471,1.3254,1.3247,1.3239,1.3214,0,0,1.3215,1.3212,0,0,0,0,0,0,0,0,1.3953,1.3933,1.3743,1.3732,1.372,1.3568,1.3627,1.3475,1.3475,1.3566,1.3472,1.347,1.3357,1.3341,1.3304,1.3204,1.3195,1.3215,1.321,1.3207,1.3205,0,0,0,0,0,0,0,1.3964,1.3942,1.3738,1.374,1.3726,1.3691,1.3668,1.3597,1.347,1.3558,1.3547,1.3525,1.335,1.3311,1.3297,1.3191,1.3215,1.3208,1.3203,1.32,1.306,1.3061,0,0,0,0,0,0,1.3991,1.3952,1.3745,1.3732,1.3836,1.3687,1.3661,1.3618,1.347,1.3447,1.3526,1.3519,1.3325,1.3307,1.3289,1.3249,1.3207,1.32,1.3195,1.3059,1.3061,1.3062,0,0,0,0,0,0,1.3997,1.3974,1.3754,1.3839,1.3809,1.3683,1.3637,1.3615,1.3575,1.3447,1.3423,1.351,1.3324,1.33,1.3234,1.3239,1.3196,1.3189,1.3058,1.306,1.3061,1.317,0,0,0,0,0,0,1.4006,1.3977,1.3967,1.384,1.3805,1.3704,1.3637,1.3611,1.3563,1.3553,1.3425,1.3403,1.3321,1.3247,1.3227,1.3228,1.3183,1.3057,1.3059,1.3061,1.3165,1.3175,1.3183,0,0,0,0,0,1.4016,1.4005,1.3968,1.3943,1.3791,1.3705,1.3684,1.3592,1.3564,1.3552,1.347,1.3407,1.3244,1.3241,1.3217,1.3217,1.3056,1.3058,1.306,1.3161,1.3173,1.3183,0,0,0,0,0,0,1.4132,1.3986,1.3943,1.3891,1.3812,1.3683,1.3665,1.3607,1.3532,1.3525,1.3412,1.3384,1.333,1.3267,1.3267,1.3185,1.3142,1.314,1.3227,1.3237,1.3246,1.3261,1.3177,0,0,0,0,0,1.4153,1.4098,1.3972,1.3938,1.3901,1.3791,1.375,1.3686,1.3598,1.3563,1.3476,1.3391,1.332,1.3276,1.3204,1.3157,1.3126,1.3145,1.3154,1.3162,1.316,1.3129,1.3136,1.3068,1.3068,1.3068,0,0,1.4193,1.4106,1.4078,1.3959,1.389,1.3834,1.3763,1.3706,1.3662,1.3553,1.3486,1.342,1.3318,1.3262,1.3232,1.3207,1.3173,1.3165,1.3172,1.3165,1.3132,1.3139,1.3144,1.307,1.307,1.3069,0,0,1.4236,1.4166,1.4129,1.4063,1.3961,1.3888,1.388,1.3759,1.3712,1.3643,1.3561,1.3507,1.3388,1.3318,1.3267,1.3288,1.3226,1.3268,1.3313,1.3284,1.329,1.3294,1.3298,1.3302,1.3267,1.3267,1.3267,0,1.4297,1.421,1.4117,1.4065,1.4015,1.3919,1.3879,1.3818,1.3697,1.3663,1.3639,1.3488,1.3412,1.3338,1.3343,1.3307,1.3291,1.3279,1.3297,1.33,1.3302,1.3306,1.3308,1.3273,1.3272,1.3271,1.3271,0,1.429,1.4231,1.4214,1.4102,1.405,1.4005,1.3903,1.3861,1.3804,1.3733,1.3664,1.3571,1.3478,1.3457,1.3398,1.3374,1.3361,1.3319,1.3273,1.3316,1.3317,1.3318,1.328,1.3278,1.3277,1.3275,0,0,1.4396,1.4236,1.4231,1.4179,1.4061,1.4012,1.3963,1.3875,1.384,1.3761,1.3714,1.3618,1.3578,1.352,1.3454,1.343,1.3449,1.3389,1.3385,1.3401,1.3414,1.3445,1.3448,1.341,1.341,1.341,1.3422,0,1.4419,1.4327,1.4243,1.418,1.4124,1.4033,1.3989,1.3911,1.3845,1.3786,1.3711,1.3644,1.3597,1.3562,1.3534,1.3453,1.345,1.3451,1.3363,1.3361,1.3388,1.3449,1.3481,1.3497,1.3422,1.3422,1.3422,0,1.4432,1.436,1.4293,1.418,1.4153,1.4116,1.4029,1.3975,1.3884,1.3837,1.3775,1.3706,1.3648,1.3612,1.3529,1.3532,1.3491,1.3446,1.3445,1.3429,1.3391,1.3433,1.35,1.3501,1.3422,1.3422,1.3422,0,1.4514,1.4399,1.4343,1.4302,1.4171,1.4146,1.409,1.3999,1.3951,1.3875,1.3842,1.376,1.3714,1.3651,1.3561,1.3544,1.3487,1.3444,1.3444,1.3446,1.3432,1.3433,1.3491,1.3413,1.3413,1.3413,1.3413,0,1.4546,1.4507,1.4378,1.4344,1.4298,1.4202,1.4158,1.4094,1.4014,1.3964,1.3881,1.3835,1.3721,1.3661,1.3591,1.3532,1.3512,1.3471,1.3452,1.3476,1.3481,1.3445,1.344,1.3413,1.3413,1.3413,1.3413,0,1.4627,1.4539,1.4472,1.4355,1.4325,1.4296,1.4194,1.4156,1.4087,1.4024,1.4004,1.3894,1.382,1.3725,1.3621,1.3573,1.3521,1.3494,1.3552,1.354,1.3544,1.3544,1.3577,1.3576,1.3503,1.3504,1.3505,0,1.4651,1.462,1.45,1.4462,1.4409,1.4349,1.4301,1.4206,1.4159,1.4054,1.4029,1.3949,1.3879,1.3765,1.3674,1.3594,1.3562,1.358,1.3549,1.3575,1.3559,1.356,1.3556,1.3586,1.3587,1.3588,1.3589,0,1.4703,1.4662,1.4597,1.4518,1.4464,1.4397,1.4325,1.4298,1.4188,1.4139,1.4064,1.401,1.3905,1.3826,1.3734,1.3674,1.3612,1.3601,1.3595,1.3618,1.3652,1.3631,1.3569,1.3599,1.3598,1.3597,1.3596,1.3596,1.4754,1.4722,1.4633,1.4564,1.4501,1.4437,1.4395,1.4322,1.4259,1.4166,1.4114,1.404,1.395,1.3821,1.3764,1.3703,1.368,1.3674,1.3671,1.3671,1.3677,1.3666,1.3687,1.3686,1.3686,1.3686,1.3685,0,1.4799,1.4738,1.4676,1.458,1.4526,1.4477,1.4396,1.4352,1.4289,1.4212,1.4147,1.406,1.3983,1.3889,1.3805,1.3775,1.3745,1.3756,1.3755,1.3742,1.3704,1.3715,1.3782,1.3782,1.3782,1.3782,1.3782,1.3782,1.4816,1.4758,1.4708,1.4618,1.4556,1.4485,1.4443,1.4382,1.432,1.4228,1.4165,1.4105,1.402,1.393,1.3858,1.3832,1.3803,1.3823,1.3788,1.3753,1.3745,1.3737,1.3746,1.3819,1.3819,1.383,1.3831,1.3831]}]]